[[{"header":{"parameterUnit":"m.s-1","parameterCategory":1,"la1":30.2991,"la2":30.254,"lo1":-89.0895,"lo2":-89.0444,"dx":0.0017,"dy":0.0017,"nx":28,"ny":28,"refTime":"2023-02-12T09:00:00:Z","depth":0,"parameterNumber":2,"parameterNumberName":"U-component_of_WINDS"},"data":[0,0,0,0,0,0,0,0,0,0,0,0,0,0,0,0,0,0,0,0,0,0,0,0,0,0,0,0,0,0,0,0,0,0,0,0,0,0,0,0,0,0,0,0,0,0,0,0,0,0,0,0,0,0,0,0,0,0,8.2023,8.2025,0,8.2223,8.2225,8.2227,8.2108,8.2103,8.2097,8.2092,8.23,8.231,8.2321,0,0,0,0,0,0,0,0,0,0,0,0,0,8.1543,8.1553,8.2023,8.2025,8.2028,8.2222,8.2225,8.2228,8.2109,8.2102,8.2096,8.2089,8.2296,8.2309,8.2322,0,0,0,0,0,0,0,0,0,0,0,0,0,8.1748,8.1556,8.2023,8.1992,8.1991,8.2222,8.2225,8.2229,8.2111,8.2102,8.2094,8.2086,8.2292,8.2308,8.2324,8.2596,0,0,8.2374,8.2381,0,0,0,0,0,0,0,0,8.1737,8.1766,8.1994,8.1995,8.1994,8.2132,8.2132,8.2352,8.2113,8.2066,8.2091,8.2081,8.2251,8.227,8.2326,8.2606,8.2615,8.2375,8.2385,8.2392,8.2397,0,0,0,0,0,0,0,8.1723,8.1757,8.2102,8.1998,8.1998,8.197,8.199,8.2173,8.2204,8.2069,8.2061,8.2086,8.2249,8.2311,8.2331,8.2618,8.2375,8.2389,8.2399,8.2405,8.3134,8.3143,0,0,0,0,0,0,8.171,8.1746,8.2096,8.2108,8.1842,8.1986,8.2008,8.2096,8.2202,8.221,8.2093,8.208,8.2287,8.2312,8.2337,8.2666,8.2392,8.2407,8.2416,8.3125,8.3136,8.3147,0,0,0,0,0,0,8.1701,8.1743,8.2088,8.1925,8.1967,8.2003,8.2104,8.2105,8.2166,8.222,8.2225,8.215,8.2282,8.2314,8.2533,8.2671,8.2414,8.2429,8.3113,8.3128,8.3141,8.3323,0,0,0,0,0,0,8.1687,8.174,8.1843,8.1928,8.1976,8.228,8.2112,8.2115,8.2194,8.2179,8.2275,8.2283,8.2277,8.251,8.255,8.2689,8.2442,8.3101,8.312,8.3137,8.3305,8.3342,8.3374,0,0,0,0,0,8.1671,8.1886,8.1849,8.1891,8.2105,8.2287,8.2315,8.2303,8.2206,8.2311,8.2345,8.228,8.2649,8.2533,8.2577,8.2723,8.3093,8.3115,8.3136,8.329,8.3335,8.3373,0,0,0,0,0,0,8.1817,8.1897,8.1856,8.2105,8.2191,8.2267,8.2398,8.2351,8.2467,8.2447,8.2429,8.2452,8.2681,8.2723,8.2592,8.2994,8.2856,8.2887,8.2958,8.3001,8.3035,8.3021,8.2456,0,0,0,0,0,8.1878,8.2018,8.2081,8.2295,8.234,8.2362,8.2441,8.2425,8.2513,8.2549,8.2599,8.2689,8.2825,8.2915,8.3043,8.331,8.3331,8.3433,8.3467,8.3495,8.3523,8.367,8.3717,8.3217,8.3217,8.3217,0,0,8.2006,8.2067,8.2157,8.2326,8.239,8.2538,8.2393,8.2555,8.2665,8.2574,8.2784,8.2824,8.2923,8.3168,8.3278,8.321,8.3665,8.3522,8.3544,8.3557,8.3697,8.3745,8.3787,8.3232,8.3229,8.3227,0,0,8.2315,8.2374,8.256,8.2628,8.2726,8.274,8.2785,8.287,8.2893,8.3103,8.3039,8.317,8.3404,8.3478,8.3546,8.3885,8.383,8.3927,8.4107,8.4251,8.429,8.4325,8.4449,8.4493,8.3954,8.3955,8.3955,0,8.2462,8.2681,8.2662,8.283,8.2907,8.283,8.302,8.3087,8.3223,8.3279,8.3201,8.3495,8.3556,8.3818,8.3901,8.3958,8.401,8.3917,8.4285,8.432,8.4353,8.4471,8.4517,8.3966,8.3965,8.3964,8.3963,0,8.2858,8.3011,8.3149,8.3283,8.3376,8.3553,8.3564,8.366,8.3636,8.3659,8.3876,8.3946,8.4088,8.4148,8.4127,8.4409,8.4365,8.4287,8.4148,8.4412,8.4523,8.4567,8.3982,8.3978,8.3975,8.3972,0,0,8.3266,8.3387,8.3439,8.3499,8.3603,8.3722,8.3897,8.4035,8.412,8.4216,8.4365,8.4565,8.4495,8.4572,8.4558,8.4684,8.4952,8.4591,8.4593,8.4658,8.5271,8.533,8.5383,8.4915,8.4923,8.493,8.5263,0,8.3583,8.3888,8.3878,8.4163,8.4306,8.4235,8.4388,8.447,8.4496,8.4622,8.4651,8.4795,8.4689,8.4735,8.4857,8.4893,8.5075,8.4869,8.5055,8.5062,8.5035,8.544,8.5503,8.5814,8.5306,8.5313,8.5319,0,8.3995,8.4106,8.4405,8.449,8.4549,8.4687,8.4814,8.4934,8.5026,8.5037,8.5124,8.5091,8.527,8.5125,8.5374,8.5235,8.531,8.534,8.5352,8.537,8.5208,8.5473,8.5913,8.5961,8.5386,8.538,8.5376,0,8.4266,8.4489,8.4698,8.4752,8.4855,8.4954,8.5002,8.5085,8.517,8.5281,8.5336,8.5468,8.554,8.5644,8.5647,8.5541,8.59,8.5754,8.5916,8.5917,8.5997,8.5992,8.6458,8.6042,8.6041,8.604,8.6039,0,8.4623,8.481,8.4822,8.4951,8.5159,8.5145,8.5352,8.539,8.5465,8.5601,8.5548,8.5678,8.5673,8.5805,8.5809,8.6016,8.6049,8.6064,8.6064,8.6071,8.6069,8.6122,8.6101,8.6052,8.605,8.6047,8.6045,0,8.4962,8.4977,8.52,8.528,8.5304,8.5455,8.5523,8.5647,8.5668,8.5842,8.5882,8.5916,8.6069,8.6082,8.626,8.6262,8.6514,8.6489,8.6484,8.648,8.6642,8.6628,8.716,8.7231,8.6766,8.677,8.6774,0,8.519,8.5332,8.5427,8.5515,8.5568,8.5709,8.5795,8.5788,8.588,8.5996,8.6107,8.6254,8.6372,8.662,8.6662,8.6798,8.6777,8.6955,8.6798,8.6801,8.6784,8.6776,8.6792,8.6986,8.6991,8.6995,8.6999,0,8.5595,8.5596,8.5721,8.5851,8.5955,8.6057,8.6152,8.6226,8.623,8.6337,8.6493,8.6584,8.6766,8.6914,8.7048,8.7098,8.7052,8.7047,8.7093,8.7103,8.7095,8.7104,8.657,8.7036,8.7032,8.7029,8.7027,8.7026,8.5888,8.6011,8.6098,8.6241,8.6311,8.6402,8.6522,8.6559,8.6688,8.6834,8.6822,8.6995,8.7085,8.726,8.7321,8.7457,8.7398,8.7463,8.748,8.7496,8.7515,8.7071,8.7481,8.748,8.7479,8.7478,8.7478,0,8.6292,8.6344,8.6475,8.661,8.6723,8.6666,8.6769,8.6867,8.702,8.7107,8.7224,8.7405,8.7549,8.7602,8.7743,8.7842,8.7824,8.788,8.7874,8.7887,8.7558,8.7506,8.7892,8.7892,8.7892,8.7892,8.7892,8.7892,8.6516,8.6724,8.6735,8.6978,8.7029,8.7197,8.7261,8.7345,8.7415,8.7618,8.7737,8.777,8.7846,8.7992,8.8122,8.8134,8.819,8.8256,8.8259,8.7951,8.791,8.787,8.7821,8.8267,8.8268,8.8577,8.8579,8.8582]},{"header":{"parameterUnit":"m.s-1","parameterCategory":1,"la1":30.2991,"la2":30.254,"lo1":-89.0895,"lo2":-89.0444,"dx":0.0017,"dy":0.0017,"nx":28,"ny":28,"refTime":"2023-02-12T09:00:00:Z","depth":0,"parameterNumber":3,"parameterNumberName":"V-component_of_WINDS"},"data":[0,0,0,0,0,0,0,0,0,0,0,0,0,0,0,0,0,0,0,0,0,0,0,0,0,0,0,0,0,0,0,0,0,0,0,0,0,0,0,0,0,0,0,0,0,0,0,0,0,0,0,0,0,0,0,0,0,0,-5.3197,-5.32,0,-5.3426,-5.3429,-5.3431,-5.3438,-5.3436,-5.3433,-5.343,-5.3664,-5.3673,-5.3682,0,0,0,0,0,0,0,0,0,0,0,0,0,-5.2765,-5.2773,-5.3197,-5.32,-5.3203,-5.3426,-5.3429,-5.3432,-5.3439,-5.3436,-5.3432,-5.3429,-5.3661,-5.3672,-5.3682,0,0,0,0,0,0,0,0,0,0,0,0,0,-5.2969,-5.2776,-5.3196,-5.3233,-5.3238,-5.3425,-5.3429,-5.3433,-5.344,-5.3435,-5.3431,-5.3427,-5.3658,-5.3671,-5.3684,-5.3849,0,0,-5.3724,-5.373,0,0,0,0,0,0,0,0,-5.2958,-5.2985,-5.3225,-5.3231,-5.3237,-5.3399,-5.3363,-5.3572,-5.3441,-5.3363,-5.343,-5.3425,-5.358,-5.3599,-5.3651,-5.386,-5.387,-5.3726,-5.3734,-5.3739,-5.3743,0,0,0,0,0,0,0,-5.2943,-5.2975,-5.3288,-5.3228,-5.3236,-5.3238,-5.3262,-5.3402,-5.3492,-5.337,-5.3371,-5.3398,-5.3582,-5.3638,-5.3657,-5.3874,-5.3725,-5.3737,-5.3745,-5.375,-5.4231,-5.4236,0,0,0,0,0,0,-5.2922,-5.2963,-5.328,-5.3294,-5.3084,-5.3249,-5.3276,-5.3352,-5.3491,-5.3508,-5.3401,-5.3397,-5.3618,-5.3641,-5.3665,-5.3869,-5.3739,-5.3752,-5.3759,-5.4226,-5.4232,-5.4237,0,0,0,0,0,0,-5.2913,-5.295,-5.3271,-5.3129,-5.317,-5.3261,-5.3345,-5.3358,-5.3415,-5.3514,-5.353,-5.3442,-5.3615,-5.3646,-5.3804,-5.3877,-5.3758,-5.377,-5.422,-5.4228,-5.4235,-5.4276,0,0,0,0,0,0,-5.29,-5.2947,-5.3011,-5.3131,-5.3178,-5.3406,-5.335,-5.3366,-5.3437,-5.3435,-5.3557,-5.3573,-5.3614,-5.3784,-5.3817,-5.3893,-5.378,-5.4214,-5.4224,-5.4232,-5.4269,-5.4284,-5.4297,0,0,0,0,0,-5.2885,-5.3013,-5.3014,-5.3052,-5.326,-5.341,-5.3437,-5.3482,-5.3443,-5.3508,-5.3572,-5.3569,-5.3863,-5.38,-5.3837,-5.3918,-5.421,-5.4221,-5.4232,-5.4263,-5.4281,-5.4297,0,0,0,0,0,0,-5.2899,-5.3029,-5.3032,-5.3203,-5.3295,-5.3411,-5.3495,-5.35,-5.3606,-5.3599,-5.365,-5.3678,-5.3834,-5.3892,-5.3819,-5.4086,-5.4032,-5.4051,-5.4043,-5.4061,-5.4075,-5.4058,-5.3791,0,0,0,0,0,-5.2922,-5.3034,-5.3142,-5.3282,-5.3328,-5.3403,-5.3471,-5.3498,-5.3596,-5.3635,-5.371,-5.3806,-5.3919,-5.3993,-5.4104,-5.4277,-5.4304,-5.4351,-5.4365,-5.4376,-5.4392,-5.4489,-5.4511,-5.4273,-5.4273,-5.4273,0,0,-5.2971,-5.3056,-5.3123,-5.3287,-5.3362,-5.3477,-5.3436,-5.3559,-5.3645,-5.3653,-5.3807,-5.3866,-5.3975,-5.4142,-5.4219,-5.4194,-5.4464,-5.439,-5.4398,-5.4408,-5.4502,-5.4525,-5.4545,-5.428,-5.4279,-5.4278,0,0,-5.3119,-5.3194,-5.3319,-5.3395,-5.351,-5.3559,-5.3589,-5.3704,-5.3744,-5.3899,-5.3908,-5.401,-5.4205,-5.4283,-5.4348,-5.4525,-5.4527,-5.456,-5.4634,-5.4728,-5.4746,-5.4763,-5.4827,-5.485,-5.4575,-5.4575,-5.4575,0,-5.3165,-5.3338,-5.3383,-5.3507,-5.3578,-5.3592,-5.3719,-5.3791,-5.3935,-5.3984,-5.3955,-5.42,-5.4275,-5.446,-5.4504,-5.4556,-5.4592,-5.4546,-5.474,-5.4758,-5.4774,-5.4836,-5.486,-5.4578,-5.4578,-5.4578,-5.4577,0,-5.339,-5.3509,-5.3597,-5.3737,-5.3818,-5.3943,-5.4007,-5.4084,-5.4104,-5.4156,-5.4314,-5.4404,-5.4533,-5.4579,-5.4599,-5.4767,-5.4749,-5.4729,-5.4676,-5.4799,-5.4858,-5.4882,-5.4583,-5.4582,-5.4581,-5.458,0,0,-5.3553,-5.3716,-5.3748,-5.3811,-5.3938,-5.4032,-5.4157,-5.4283,-5.4349,-5.4448,-5.4555,-5.4719,-5.4703,-5.4776,-5.4805,-5.4887,-5.5023,-5.4858,-5.4862,-5.4886,-5.5215,-5.523,-5.5257,-5.5025,-5.5029,-5.5033,-5.5206,0,-5.3716,-5.3939,-5.3983,-5.4178,-5.4289,-5.4303,-5.4412,-5.4502,-5.4554,-5.4657,-5.4714,-5.483,-5.4798,-5.4843,-5.4925,-5.4989,-5.509,-5.4977,-5.5125,-5.513,-5.5098,-5.5287,-5.5303,-5.5463,-5.523,-5.5234,-5.5236,0,-5.3935,-5.404,-5.4245,-5.4357,-5.4406,-5.4503,-5.4623,-5.472,-5.4822,-5.4854,-5.4937,-5.4957,-5.5088,-5.5028,-5.521,-5.5132,-5.5195,-5.5236,-5.5243,-5.526,-5.5191,-5.531,-5.5514,-5.5539,-5.5273,-5.527,-5.5267,0,-5.4035,-5.4227,-5.4375,-5.4429,-5.4563,-5.4632,-5.4691,-5.4789,-5.4862,-5.4966,-5.5015,-5.5133,-5.5198,-5.5289,-5.534,-5.5292,-5.5518,-5.5463,-5.5549,-5.5548,-5.5597,-5.5594,-5.5816,-5.5636,-5.5636,-5.5635,-5.5635,0,-5.4212,-5.4337,-5.4422,-5.4513,-5.4654,-5.4703,-5.4841,-5.49,-5.4987,-5.5089,-5.5108,-5.5204,-5.5266,-5.5371,-5.5412,-5.5556,-5.5585,-5.5615,-5.5625,-5.5615,-5.5611,-5.5657,-5.5648,-5.5642,-5.564,-5.5639,-5.5638,0,-5.4348,-5.441,-5.4572,-5.4686,-5.4717,-5.4816,-5.4914,-5.5003,-5.5055,-5.5185,-5.5218,-5.53,-5.5424,-5.5484,-5.5639,-5.5666,-5.5831,-5.5832,-5.5796,-5.58,-5.5884,-5.5876,-5.6145,-5.6183,-5.5976,-5.5978,-5.598,0,-5.4458,-5.4555,-5.4679,-5.4749,-5.481,-5.4923,-5.4998,-5.505,-5.5128,-5.5251,-5.5325,-5.5451,-5.5554,-5.5752,-5.5825,-5.5944,-5.5949,-5.6035,-5.5967,-5.5954,-5.5952,-5.5946,-5.5956,-5.6048,-5.605,-5.6052,-5.6053,0,-5.4647,-5.4672,-5.4779,-5.4898,-5.4987,-5.5082,-5.5176,-5.5233,-5.53,-5.5386,-5.5514,-5.5594,-5.5751,-5.5876,-5.5999,-5.606,-5.6069,-5.6074,-5.61,-5.6091,-5.6067,-5.6082,-5.5831,-5.6067,-5.6066,-5.6065,-5.6064,-5.6064,-5.4774,-5.4861,-5.4962,-5.5081,-5.5157,-5.5245,-5.5334,-5.5397,-5.5505,-5.5637,-5.5661,-5.5797,-5.5897,-5.6064,-5.6129,-5.6236,-5.6216,-5.6254,-5.6264,-5.6273,-5.6278,-5.6048,-5.6258,-5.6258,-5.6258,-5.6257,-5.6257,0,-5.4965,-5.503,-5.5139,-5.527,-5.5364,-5.5363,-5.5467,-5.5545,-5.5665,-5.5757,-5.5858,-5.6005,-5.6126,-5.6208,-5.6331,-5.6401,-5.6408,-5.6431,-5.6427,-5.6442,-5.6288,-5.6254,-5.6424,-5.6424,-5.6424,-5.6424,-5.6424,-5.6424,-5.5075,-5.5222,-5.526,-5.5445,-5.551,-5.5643,-5.5703,-5.5783,-5.5857,-5.6021,-5.6121,-5.6174,-5.6263,-5.6392,-5.6503,-5.6524,-5.6569,-5.6593,-5.6614,-5.647,-5.6452,-5.6436,-5.6403,-5.6602,-5.6602,-5.6759,-5.676,-5.6761]}]]